Location: Kellogg
(38.0159°N, 90.0546°W)
Time: 21:05:14
(UTC+00:00)

Transit 4A - Pass Details

Date: 11 September 2024
Orbit: 864 x 978 km, 66.8° (Epoch: 12 October)

Event Time Altitude Azimuth Distance (km) Brightness Sun altitude
Rises 11:05:05 0° 252° (WSW) 3,451 - -7.4°
Exits shadow 11:07:40 - 265° (W) 2,690 9.6 -6.9°
Reaches altitude 10° 11:08:17 10° 270° (W) 2,528 9.5 -6.8°
Maximum altitude 11:12:23 19° 314° (NW) 1,971 9.3 -6.0°
Drops below altitude 10° 11:16:34 10° 359° (N) 2,581 10.4 -5.2°
Sets 11:19:54 0° 17° (NNE) 3,548 11.3 -4.6°
